Location: Fiddletown
(38.4917°N, 120.6633°W)
Time: 10:30:10
(UTC-07:00)

Envisat - Visible Passes

Search period start: 05 July 2015 00:00
Search period end: 15 July 2015 00:00
Orbit: 765 x 766 km, 98.3° (Epoch: 05 July)

Date Brightness Start Highest point End Pass type
(mag) Time Alt. Az. Time Alt. Az. Time Alt. Az.
05 Jul 3.6 22:29:42 20° S 22:33:01 52° W 22:37:59 10° NNW visible
06 Jul 3.0 21:52:39 18° SSE 21:56:23 69° ENE 22:01:26 10° N visible
06 Jul 5.5 23:33:46 10° WSW 23:36:00 12° W 23:37:55 10° WNW visible
07 Jul 4.0 21:15:36 10° SE 21:19:54 31° ENE 21:24:21 10° N visible
07 Jul 4.5 22:55:48 16° SW 22:58:55 29° W 23:03:17 10° NW visible
08 Jul 3.2 22:18:45 21° S 22:22:07 67° W 22:27:11 10° NNW visible
09 Jul 3.2 21:41:41 16° SE 21:45:31 54° ENE 21:50:29 10° N visible
09 Jul 5.3 23:21:54 10° SW 23:24:57 16° W 23:27:57 10° NW visible
10 Jul 4.3 21:05:06 10° ESE 21:09:06 25° ENE 21:13:12 10° NNE visible
10 Jul 4.2 22:44:51 19° SSW 22:47:58 37° W 22:52:38 10° NNW visible
11 Jul 3.0 22:07:48 21° SSE 22:11:14 85° W 22:16:20 10° NNW visible
12 Jul 3.5 21:30:45 14° SE 21:34:41 42° ENE 21:39:29 10° N visible
12 Jul 5.0 23:10:57 13° SW 23:13:56 21° W 23:17:37 10° NW visible
13 Jul 4.6 20:54:47 10° ESE 20:58:18 20° ENE 21:01:57 10° NNE visible
13 Jul 3.8 22:33:55 21° SSW 22:37:00 47° W 22:41:54 10° NNW visible
14 Jul 3.0 21:56:51 20° SSE 22:00:20 76° ENE 22:05:26 10° N visible
14 Jul 5.5 23:38:31 10° WSW 23:40:03 11° W 23:41:13 10° WNW visible
